sat.trackr.live / text

‹ back to catalog

STARLINK-3834

NORAD 52368 · 2022-045AP

PAYLOAD ACTIVE UNKNOWN

§ Identity

Operator
Country
US
Launch date
2022-04-29
Launch site
AFETR
Launch vehicle
Mass (kg)
RCS (m²)

Purposes: comms

External: N2YO · Heavens-Above · Gunter

§ Orbital elements

Epoch: 2026-05-25T03:19:04.914048Z

Period
95.44 min
Inclination
53.2148°
Eccentricity
0.0001241
Mean motion
15.08834640 rev/d
Perigee alt
538.9 km
Apogee alt
540.6 km
Semi-major
6,917.9 km
B*
1.1918e-5
RAAN
205.9312°
Arg perigee
88.0365°
Mean anomaly
272.0769°
Rev number
22,745

§ Raw data

STARLINK-38341 52368U 22045AP  26145.13825132 -.00000098  00000+0  11918-4 0  99912 52368  53.2148 205.9312 0001241  88.0365 272.0769 15.08834640227451

JSON: /api/v1/satellites/52368 · /tle

For live sub-satellite position, see the globe view (requires WebGL).

§ Visibility from observer

Set your observer location to see the next 7 days of passes ≥ 10°. The values pass through the URL so the page stays shareable.

No JS? Fill the form by hand. The geolocation button needs JavaScript.